www.pogodaiklimat.ru

Погода и климат >> Архив погоды >> Хорватия >> Загреб аэропорт


ПОГОДА в Загреб аэропорту

  • Прогноз погоды в Загреб аэропорту
  • Монитор погоды в Загреб аэропорту

АРХИВ ПОГОДЫ в Загреб аэропорту

Время (UTC), дата Ветер
(напр.,м/с)
 
Видим.   Явления Облачность Т
(С)
Тd
(С)
f
(%)
Тe
(С)
Тes
(С)
Комфортность P
(гПа)
Po
(гПа)
Тmin
(С)
Tmax
(С)
R
(мм)
R24
(мм)
S
(см)
00 19.05 С 1 4000 м слаб. дождь 10/9 360 м
[Sc As op]
+13.5 +12.6 94 +14 +14 1007.6 995.0 2
03 19.05 штиль 0 300 м туман {дождь} ?/? +13.2 +12.9 98 +13 +13 1006.3 993.7
06 19.05 штиль 0 2500 м дымка {дождь, туман} 10/10 60 м
[St]
+13.4 +12.5 94 +13 +13 1006.5 993.9 +12.6 2
09 19.05 ЮЗ 1 12 км 9/9 120 м
[St]
+15.5 +14.3 93 +16 +18 1006.1 993.6
12 19.05 В 3 30 км 9/3 700 м
[Cu med, cong Ac As]
+18.4 +12.2 67 +19 +23 1004.7 992.3
15 19.05 ЮВ 3 30 км 10/5 800 м
[Cu Sc Ac As]
+18.8 +12.1 65 +20 +21 1004.2 991.8
18 19.05 В 2 30 км 8/0
[Ac trans]
+17.7 +13.4 76 +18 +18 1003.4 991.0 +19.4
21 19.05 Ю 2 30 км 9/5 900 м
[Cu Sc Ac As]
+14.2 +12.9 92 +14 +14 1004.0 991.4
00 20.05 ЮЗ 1 20 км слаб. дождь 9/9 600 м
[Sc]
+13.2 +12.4 95 +13 +13 1004.1 991.5 1
03 20.05 12 км местами туман поземный {дождь} н/о +11.2 +10.5 95 +10 +10 1003.5 990.8
06 20.05 штиль 0 20 км в посл. час туман {дождь} 9/1 100 м
[St Ac As]
+13.5 +12.4 93 +13 +15 1004.0 991.4 +11.1 1
09 20.05 ЮЗ 6 50 км 9/5 600 м
[Cu Sc Ac trans]
+18.6 +12.5 68 +19 +20 1004.9 992.5
12 20.05 ЮЗ 8 50 км в посл. час ливневой дождь 9/1 1000 м
[Cu med, cong Ac As]
+18.0 +9.0 56 +17 +18 1005.9 993.5 0.0
15 20.05 ЮЗ 7 50 км 4/1 1000 м
[Cu hum Ac trans Ci sp]
+19.2 +8.3 49 +19 +21 1006.3 993.9
18 20.05 ЮЗ 3 50 км 4/1 1500 м
[Sc Ac trans Ci sp]
+15.3 +8.3 63 +15 +15 1006.3 993.7 +19.3 0.0
21 20.05 ЮЗ 3 50 км 9/9 2000 м
[Sc]
+14.1 +8.3 68 +13 +13 1007.3 994.7
00 21.05 ЮЗ 2 50 км 9/3 1500 м
[Sc Ac As]
+12.3 +7.7 73 +11 +11 1007.2 994.5
03 21.05 штиль 0 50 км 9/1 1500 м
[Sc Ac As]
+10.5 +7.7 83 +10 +10 1007.2 994.4
06 21.05 З 2 50 км 1/1 1500 м
[Cu hum Ac trans Ci sp]
+14.9 +9.9 72 +15 +18 1007.6 995.0 +10.3
09 21.05 ЮЗ 5 30 км слаб. дождь 10/10 1500 м
[Cu Sc]
+15.9 +11.3 74 +15 +15 1008.8 996.2
12 21.05 Ю 5 30 км в посл. час дождь 10/10 900 м
[Cu Sc]
+15.9 +11.9 77 +15 +15 1009.8 997.2 0.8
15 21.05 ЮЗ 3 12 км слаб. дождь 10/8 500 м
[Sc Ac As]
+16.2 +13.6 85 +16 +16 1010.0 997.5
18 21.05 ЮЗ 3 40 км {дождь} 9/1 600 м
[Cu hum Ac trans Ci sp]
+15.3 +11.6 79 +15 +15 1010.0 997.4 +16.9 2
21 21.05 ЮЗ 3 40 км 9/1 1500 м
[Sc Ac As]
+13.1 +10.7 85 +12 +12 1011.2 998.5
00 22.05 ЮЗ 3 40 км 9/0
[Ac As]
+13.8 +10.8 82 +13 +13 1011.2 998.5
03 22.05 З 2 30 км 6/0
[Ac trans]
+11.0 +9.4 90 +10 +10 1011.3 998.5
06 22.05 З 2 40 км 8/0 2000 м
[Ac As]
+15.1 +11.5 79 +15 +17 1012.2 999.6 +10.9
09 22.05 З 5 50 км 6/1 900 м
[Cu hum Ac As]
+20.2 +12.7 62 +22 +26 комфорт 1012.1 999.7
12 22.05 З 5 50 км 8/1 1050 м
[Cu med, cong Ac As]
+21.8 +14.2 62 +25 +29 комфорт 1012.2 999.9
15 22.05 З 3 50 км 6/1 1000 м
[Cu med, cong Ac As]
+22.9 +14.5 59 +27 +30 душно 1011.5 999.2
18 22.05 В 2 15 км гроза, ливневой дождь 9/5 900 м
[Cb cap Ac As]
+14.8 +10.2 74 +15 +15 1013.2 1000.5 +23.7 18
21 22.05 З 2 30 км {гроза} 9/3 2000 м
[Sc Ac As]
+13.9 +12.4 91 +13 +13 1014.9 1002.2
00 23.05 ЮЗ 2 30 км {дождь, гроза} 5/3 2000 м
[Sc Ci sp]
+12.3 +11.4 94 +11 +11 1015.5 1002.7 0.0
03 23.05 штиль 0 15 км местами туман поземный 8/0
[Ac trans]
+10.8 +10.4 97 +10 +10 1015.6 1002.7
06 23.05 штиль 0 20 км 9/3 2000 м
[Sc Ac trans Ci sp]
+13.7 +12.2 91 +13 +16 1015.9 1003.2 +10.5
09 23.05 СВ 3 40 км 5/3 800 м
[Cu Sc Ac trans Ci sp]
+19.0 +11.1 60 +20 +28 1016.1 1003.6
12 23.05 В 2 50 км 6/5 1350 м
[Cu Sc Ci sp]
+21.1 +10.2 50 +23 +31 комфорт 1014.8 1002.4
15 23.05 В 3 50 км 5/3 1410 м
[Cu Sc Ac trans Ci sp]
+21.3 +9.6 47 +23 +26 комфорт 1013.8 1001.4
18 23.05 В 2 50 км 6/1 2000 м
[Sc Ac trans]
+19.0 +11.2 61 +20 +21 1014.3 1001.8 +21.8
21 23.05 В 2 50 км 9/1 1500 м
[Sc Ac As]
+15.6 +9.6 67 +16 +16 1016.3 1003.6
00 24.05 штиль 0 30 км {дождь} 10/1 1500 м
[Sc Ac As]
+13.5 +10.9 84 +13 +13 1016.3 1003.5 0.0
03 24.05 ЮЗ 2 40 км 8/1 1500 м
[Sc Ac As]
+12.2 +10.6 90 +11 +11 1015.5 1002.7
06 24.05 штиль 0 40 км 3/1 1000 м
[Sc Ac trans Ci sp]
+14.6 +10.0 74 +14 +19 1015.6 1002.9 +11.9
09 24.05 штиль 0 40 км 1/1 1500 м
[Cu hum Ac trans]
+19.3 +7.9 48 +20 +39 опасность
простуды
1014.8 1002.3
12 24.05 штиль 0 40 км 1/1 1500 м
[Cu hum]
+21.9 +9.1 44 +23 +45 комфорт 1013.3 1000.9
15 24.05 СВ 2 40 км 1/1 1500 м
[Cu hum]
+23.1 +9.5 42 +25 +31 комфорт 1011.9 999.6
18 24.05 В 2 40 км 3/0
[Ac trans Ci fib]
+20.0 +9.8 52 +22 +22 комфорт 1011.6 999.2 +23.5
21 24.05 штиль 0 30 км ясно +15.0 +10.4 74 +15 +15 1013.4 1000.7
00 25.05 З 1 30 км 1/0
[Ac trans]
+12.3 +9.3 82 +12 +12 1013.8 1001.0
03 25.05 штиль 0 30 км 1/1 2000 м
[Sc]
+10.2 +9.3 94 +9 +9 1013.8 1000.9
06 25.05 штиль 0 40 км 1/1 1000 м
[Cu hum]
+14.8 +11.2 79 +15 +20 1014.5 1001.8 +9.6
09 25.05 ЮЗ 1 40 км 6/1 1200 м
[Cu Sc Ci fib]
+21.9 +12.2 54 +24 +39 комфорт 1014.8 1002.4
12 25.05 Ю 2 40 км 9/1 1500 м
[Cu hum Cs]
+24.6 +9.1 37 +25 +38 комфорт 1013.6 1001.3
15 25.05 В 1 40 км 6/1 1500 м
[Cu med, cong Ci ing]
+25.3 +10.4 39 +26 +33 жарко 1012.4 1000.2
18 25.05 ЮВ 2 40 км 9/0 2000 м
[Ac cast Ci sp]
+21.2 +12.6 58 +23 +24 комфорт 1013.0 1000.6 +26.0
21 25.05 З 3 40 км 8/0
[Ac trans Ci sp]
+16.4 +12.5 78 +16 +16 1014.4 1001.8

 

Местоположение метеостанции Загреб аэропорт (Хорватия): широта 45.73 долгота 16.07 высота над уровнем моря 107 м.

В архиве по умолчанию представлена погода в Загреб аэропорту за последнюю неделю. Архивные данные за месяц целиком и за предыдущие месяцы, начиная с января 2011 года, Вы можете получить, выбрав интересующий диапазон дат из раскрывающегося списка и нажав кнопку "Ввод!".


*Определитесь, кто Вы:
робот инопланетянин человек

Внимание! Время в таблицах - всемирное. Для получения местного времени необходимо прибавить поправку, которая равна 1 ч.

Смотрите также архив погоды в соседних городах и на ближайших метеорологических станциях:

Погода в Загребе (Хорватия) (10 км)
Погода в Загреб-Градеце (Хорватия) (12 км)
Погода в Пунтиярке (Хорватия) (23 км)
Погода в Сисаке (Хорватия) (35 км)
Погода в Карловаце (Хорватия) (47 км)
Погода в Церки-об-Крки (Словения) (47 км)
Погода в Крапине (Хорватия) (47 км)
Погода в Крижевцах (Хорватия) (50 км)
Погода в Бьеловаре (Хорватия) (61 км)
Погода в Вараздине (Хорватия) (68 км)

Пояснения к столбцам:

Ветер - указаны скорость ветра в м/с - средняя за 10 мин, порывы в срок и между сроками (в фигурных скобках) и направление, откуда дует ветер: С - северный, СВ - северо-восточный, В - восточный, ЮВ - юго-восточный, Ю - южный, ЮЗ - юго-западный, З - западный, СЗ - северо-западный.
Видимость - горизонтальная дальность видимости в метрах или километрах. При видимости от 1 до 10 км при отсутствии осадков обычно наблюдается дымка, при ухудшении видимости до 1 км и менее - туман. В сухую погоду видимость может ухудшаться дымом, пылью или мглою.
Явления - указаны атмосферные явления, наблюдавшиеся в срок или в последний час перед сроком; фигурными скобками обозначены явления, наблюдавшиеся между сроками (за 1-3 часа до срока); квадратными скобками обозначены град или гололедные отложения с указанием их диаметра в мм.
Облачность - указаны через наклонную черту общая и нижняя облачность в баллах и высота нижней границы облаков в метрах; квадратными скобками обозначены формы облаков: Ci - перистые, Cs - перисто-слоистые, Cc - перисто-кучевые, Ac - высококучевые, As - высокослоистые, Sc - слоисто-кучевые, Ns - слоисто-дождевые, Cu - кучевые, Cb - кучево-дождевые. Подробнее классификацию облаков см. в Атласе облаков (PDF).
T - Температура воздуха - температура, измеренная на высоте 2 м над землей.
Td - Температура точки росы - температура, при понижении до которой содержащийся в воздухе водяной пар достигнет насыщения.
f - Относительная влажность воздуха - влажноcть воздуха, измеренная на высоте 2 м над землей.
Te - Эффективная температура - температура, которую ощущает одетый по сезону человек в тени. Характеристика душности погоды. При расчете учитывается влияние влажности воздуха и скорости ветра на теплоощущения человека.
Tes - Эффективная температура на солнце - температура, которую ощущает человек, с поправкой на солнечный нагрев. Характеристика знойности погоды. Зависит от высоты солнца над горизонтом, облачности и скорости ветра. Ночью, в пасмурную погоду, а также при ветре 12 м/с и более поправка равна нулю.
P - Атмосферное давление - приведенное к уровню моря атмосферное давление.
Po - Атмосферное давление - измеренное на уровне метеостанции атмосферное давление.
Tmin - Минимальная температура - минимум температуры воздуха на высоте 2 м над землей.
Tmax - Максимальная температура - максимум температуры воздуха на высоте 2 м над землей.
R - Количество осадков - Количество выпавших осадков за период времени, мм. При наведении курсора мыши на число - период времени, за который выпало указанное количество осадков.
R24 - Количество осадков - Количество выпавших осадков за 24 часа, мм.
S - Снежный покров - Высота снежного покрова, см. При наведении курсора мыши на число - состояние снежного покрова и степень покрытия местности в баллах.